www.pogodaiklimat.ru

Погода и климат >> Архив погоды >> Россия >> Чукотка >> Билибино


ПОГОДА в Билибино

  • Прогноз погоды в Билибино
  • Монитор погоды в Билибино

АРХИВ ПОГОДЫ в Билибино

Время (UTC), дата Ветер
(напр.,м/с)
 
Видим.   Явления Облачность Т
(С)
Тd
(С)
f
(%)
Тe
(С)
Тes
(С)
Комфортность P
(гПа)
Po
(гПа)
Тmin
(С)
Tmax
(С)
R
(мм)
R24
(мм)
S
(см)
00 17.01 штиль 0
{3}
50 км {снег} 4/0
[Ac trans]
-38.1 -42.3 64 -38 -38 опасность
обморожения
1027.1 986.3 -38.1
03 17.01 СВ 1
{2}
50 км 6/3 1000 м
[Sc Ac trans]
-35.1 -38.7 69 -40 -40 опасность
обморожения
1026.5 986.0
06 17.01 Ю 1
{2}
10 км слаб. снег 10/0
[As op]
-34.3 -38.5 66 -39 -39 опасность
обморожения
1025.9 985.8
09 17.01 Ю 1
{2}
10 км слаб. снег 10/0
[As op]
-34.8 -39.1 65 -39 -39 опасность
обморожения
1025.5 985.3 -32.8 0.6
12 17.01 Ю 1
{2}
10 км слаб. снег 10/0
[As op]
-34.2 -38.5 65 -39 -39 опасность
обморожения
1025.0 985.0
15 17.01 Ю 1
{3}
4000 м слаб. снег 10/0
[As op]
-34.4 -38.8 64 -39 -39 опасность
обморожения
1023.9 983.9
18 17.01 ЮВ 1
{2}
2000 м снег 10/0
[As op]
-34.7 -39.1 64 -39 -39 опасность
обморожения
1023.2 983.0
21 17.01 штиль 0
{2}
2000 м снег 10/0
[As op]
-34.4 -38.8 64 -34 -34 опасность
обморожения
1022.5 982.5 -35.1 1 29
00 18.01 Ю 1
{2}
10 км снежные кристаллы 10/0
[As op]
-34.2 -38.5 65 -39 -39 опасность
обморожения
1022.2 982.3 -35.2
03 18.01 Ю 1
{2}
4000 м слаб. снег 10/0
[As op]
-34.1 -38.5 64 -39 -39 опасность
обморожения
1021.7 981.8
06 18.01 штиль 0
{2}
4000 м слаб. снег 10/0
[As op]
-38.9 -43.1 64 -39 -39 опасность
обморожения
1023.0 982.2
09 18.01 штиль 0
{1}
10 км снежные кристаллы 10/0
[As op]
-41.1 -45.1 65 -41 -41 опасность
обморожения
1021.0 982.8 -33.9 1
12 18.01 штиль 0
{1}
20 км {снег} ясно -42.9 -46.8 65 -43 -43 опасность
обморожения
1025.6 984.0
15 18.01 штиль 0
{1}
20 км ясно -43.5 -47.4 65 -44 -44 опасность
обморожения
1025.9 984.1
18 18.01 штиль 0
{1}
20 км ясно -44.1 -48.2 63 -44 -44 опасность
обморожения
1026.7 984.9
21 18.01 штиль 0
{1}
20 км ясно -44.4 -48.2 66 -44 -44 опасность
обморожения
1027.5 985.6 -44.5 0.0 30
00 19.01 штиль 0
{2}
50 км ясно -43.5 -47.4 65 -44 -43 опасность
обморожения
1028.1 986.2
03 19.01 СВ 1
{2}
50 км ясно -43.2 -47.4 63 -49 -49 опасность
обморожения
1027.4 985.7
06 19.01 С 1
{2}
20 км ясно -43.7 -47.4 67 -49 -49 опасность
обморожения
1028.5 986.6
09 19.01 штиль 0
{2}
10 км снежные кристаллы 10/0
[Ac As Cs]
-40.8 -45.1 63 -41 -41 опасность
обморожения
1029.2 987.8 -40.8 0.2
12 19.01 Ю 1
{1}
10 км снежные кристаллы 10/0
[Ac As Cs]
-39.3 -43.5 64 -44 -44 опасность
обморожения
1029.4 988.4
15 19.01 С 1
{2}
10 км снежные кристаллы 10/0
[Ac As Cs]
-40.7 -44.5 67 -46 -46 опасность
обморожения
1030.6 989.1
18 19.01 штиль 0
{1}
20 км {снег} 8/0
[Ac lent Cs]
-41.5 -45.6 64 -42 -42 опасность
обморожения
1031.0 989.3
21 19.01 штиль 0
{12}
10 км снежные кристаллы 10/0
[Ac lent Cs]
-40.3 -44.5 64 -40 -40 опасность
обморожения
1030.4 989.1 -43.7 0.2 30
00 20.01 СВ 2
{4}
50 км {снег} 9/9 1000 м
[Sc]
-35.2 -39.4 65 -44 -44 опасность
обморожения
1029.0 988.6
03 20.01 штиль 0
{6}
50 км 9/9 1000 м
[Sc]
-33.0 -37.4 65 -33 -33 опасность
обморожения
1028.2 988.2
06 20.01 С 1
{5}
20 км 3/3 1000 м
[Sc]
-35.5 -39.7 65 -40 -40 опасность
обморожения
1028.7 988.2
09 20.01 СВ 4
{8}
20 км 4/4 1000 м
[Sc]
-34.0 -39.0 60 -46 -46 опасность
обморожения
1027.8 987.7 -33.0 0.0
12 20.01 СВ 3
{9}
20 км 8/8 1000 м
[Sc]
-33.2 -37.6 64 -43 -43 опасность
обморожения
1027.6 987.6
15 20.01 СВ 5
{10}
20 км 10/10 1000 м
[Sc]
-32.0 -36.4 65 -45 -45 опасность
обморожения
1026.2 986.4
18 20.01 СВ 5
{9}
20 км позёмок ясно -30.8 -35.3 65 -44 -44 опасность
обморожения
1024.8 985.3
21 20.01 С 1
{9}
20 км {метель} ясно -31.7 -35.4 70 -36 -36 опасность
обморожения
1025.7 985.9 -36.2 30
00 21.01 ЮЗ 1
{5}
50 км {метель} 3/0
[Ci]
-31.5 -35.9 65 -36 -36 опасность
обморожения
1025.6 985.9
03 21.01 СВ 1
{4}
50 км 4/0
[Ac trans]
-30.5 -34.1 71 -35 -35 опасность
обморожения
1025.9 986.3
06 21.01 штиль 0
{2}
20 км 1/0
[Ac trans]
-34.0 -37.5 70 -34 -34 опасность
обморожения
1027.0 986.9
09 21.01 З 1
{1}
20 км ясно -33.2 -36.9 69 -38 -38 опасность
обморожения
1027.9 987.9 -29.8
12 21.01 СВ 1
{3}
20 км 3/0
[Ac trans]
-29.5 -33.3 69 -34 -34 опасность
обморожения
1027.7 988.2
15 21.01 СВ 2
{3}
20 км 8/0
[Ac trans Cs]
-27.7 -30.8 75 -35 -35 опасность
обморожения
1027.2 988.0
18 21.01 СВ 2
{4}
20 км 8/0
[Ac trans Cs]
-26.6 -29.7 75 -34 -34 опасность
обморожения
1027.3 988.3
21 21.01 штиль 0
{4}
20 км 9/0
[Ac trans Cs]
-29.6 -33.3 70 -30 -30 1028.6 989.0 -34.3 30
00 22.01 штиль 0
{4}
50 км 8/0
[Ac trans Ci fib]
-29.7 -33.5 69 -30 -30 1028.6 989.0
03 22.01 штиль 0
{4}
50 км 6/0
[Ac trans Ci fib]
-29.4 -33.1 70 -29 -29 1027.5 988.2
06 22.01 Ю 1
{3}
10 км снежные кристаллы 10/6 600 м
[Sc As op]
-25.9 -29.1 74 -30 -30 1026.9 988.1
09 22.01 Ю 1
{2}
10 км снежные кристаллы 10/8 600 м
[Sc Cs]
-25.5 -28.6 75 -29 -29 1026.2 987.5 -25.2 0.0
12 22.01 штиль 0
{2}
10 км снежные кристаллы 10/8 600 м
[Sc Cs]
-24.7 -27.8 75 -25 -25 1025.7 987.0
15 22.01 штиль 0
{1}
10 км снежные кристаллы 10/8 600 м
[Sc Cs]
-25.3 -28.4 75 -25 -25 1024.9 986.2
18 22.01 С 1
{1}
20 км {снег} 8/3 600 м
[Sc Ac trans Cs]
-30.0 -33.7 70 -34 -34 опасность
обморожения
1025.7 986.2
21 22.01 штиль 0
{2}
20 км 6/0
[Ac trans Ci fib]
-31.2 -35.0 69 -31 -31 опасность
обморожения
1025.9 986.3 -31.6 0.0 30
00 23.01 штиль 0
{2}
50 км 8/8 600 м
[Sc]
-31.7 -35.4 70 -32 -32 опасность
обморожения
1027.0 987.2 -33.5
03 23.01 штиль 0
{2}
50 км 6/6 600 м
[Sc]
-29.6 -33.3 70 -30 -30 1026.5 987.0
06 23.01 ЮЗ 1
{1}
10 км снежные кристаллы 10/8 600 м
[Sc As trans]
-28.7 -31.8 75 -33 -33 опасность
обморожения
1027.4 988.1
09 23.01 штиль 0
{1}
10 км снежные кристаллы 10/10 600 м
[Sc]
-25.8 -28.9 75 -26 -26 1027.6 988.7 -25.8 0.0
12 23.01 С 1
{2}
10 км снежные кристаллы 10/10 600 м
[Sc]
-24.2 -27.3 75 -28 -28 1027.4 988.8
15 23.01 штиль 0
{2}
10 км снежные кристаллы 10/10 600 м
[Sc]
-23.2 -26.4 75 -23 -23 1026.7 988.3
18 23.01 Ю 1
{2}
10 км снежные кристаллы 10/10 600 м
[Sc]
-22.8 -26.0 75 -26 -26 1026.8 988.4
21 23.01 штиль 0
{2}
10 км снежные кристаллы 10/10 600 м
[Sc]
-22.8 -26.0 75 -23 -23 1026.8 988.4 -28.7 0.2 30

 

Местоположение метеостанции Билибино (Чукотка, Россия): широта 68.05 долгота 166.40 высота над уровнем моря 280 м.

В архиве по умолчанию представлена погода в Билибино за последнюю неделю. Архивные данные за месяц целиком и за предыдущие месяцы, начиная с января 2011 года, Вы можете получить, выбрав интересующий диапазон дат из раскрывающегося списка и нажав кнопку "Ввод!".


*Определитесь, кто Вы:
робот инопланетянин человек

Внимание! Время в таблицах - всемирное. Для получения местного времени необходимо прибавить поправку, которая равна 12 ч.

Смотрите также архив погоды в соседних городах и на ближайших метеорологических станциях:

Погода в Островном (Чукотка, Россия) (96 км)
Погода в Илирнее (Чукотка, Россия) (109 км)
Погода в Раучуе (Чукотка, Россия) (161 км)
Погода в Баимке (Чукотка, Россия) (194 км)
Погода в Чауне (Чукотка, Россия) (198 км)
Погода в Анюйске (Чукотка, Россия) (205 км)
Погода на Айон Острове (Чукотка, Россия) (217 км)
Погода в Константиновской (Чукотка, Россия) (220 км)
Погода в Черском (Якутия, Россия) (222 км)
Погода в Певеке (Чукотка, Россия) (238 км)

Пояснения к столбцам:

Ветер - указаны скорость ветра в м/с - средняя за 10 мин, порывы в срок и между сроками (в фигурных скобках) и направление, откуда дует ветер: С - северный, СВ - северо-восточный, В - восточный, ЮВ - юго-восточный, Ю - южный, ЮЗ - юго-западный, З - западный, СЗ - северо-западный.
Видимость - горизонтальная дальность видимости в метрах или километрах. При видимости от 1 до 10 км при отсутствии осадков обычно наблюдается дымка, при ухудшении видимости до 1 км и менее - туман. В сухую погоду видимость может ухудшаться дымом, пылью или мглою.
Явления - указаны атмосферные явления, наблюдавшиеся в срок или в последний час перед сроком; фигурными скобками обозначены явления, наблюдавшиеся между сроками (за 1-3 часа до срока); квадратными скобками обозначены град или гололедные отложения с указанием их диаметра в мм.
Облачность - указаны через наклонную черту общая и нижняя облачность в баллах и высота нижней границы облаков в метрах; квадратными скобками обозначены формы облаков: Ci - перистые, Cs - перисто-слоистые, Cc - перисто-кучевые, Ac - высококучевые, As - высокослоистые, Sc - слоисто-кучевые, Ns - слоисто-дождевые, Cu - кучевые, Cb - кучево-дождевые. Подробнее классификацию облаков см. в Атласе облаков (PDF).
T - Температура воздуха - температура, измеренная на высоте 2 м над землей.
Td - Температура точки росы - температура, при понижении до которой содержащийся в воздухе водяной пар достигнет насыщения.
f - Относительная влажность воздуха - влажноcть воздуха, измеренная на высоте 2 м над землей.
Te - Эффективная температура - температура, которую ощущает одетый по сезону человек в тени. Характеристика душности погоды. При расчете учитывается влияние влажности воздуха и скорости ветра на теплоощущения человека.
Tes - Эффективная температура на солнце - температура, которую ощущает человек, с поправкой на солнечный нагрев. Характеристика знойности погоды. Зависит от высоты солнца над горизонтом, облачности и скорости ветра. Ночью, в пасмурную погоду, а также при ветре 12 м/с и более поправка равна нулю.
P - Атмосферное давление - приведенное к уровню моря атмосферное давление.
Po - Атмосферное давление - измеренное на уровне метеостанции атмосферное давление.
Tmin - Минимальная температура - минимум температуры воздуха на высоте 2 м над землей.
Tmax - Максимальная температура - максимум температуры воздуха на высоте 2 м над землей.
R - Количество осадков - Количество выпавших осадков за период времени, мм. При наведении курсора мыши на число - период времени, за который выпало указанное количество осадков.
R24 - Количество осадков - Количество выпавших осадков за 24 часа, мм.
S - Снежный покров - Высота снежного покрова, см. При наведении курсора мыши на число - состояние снежного покрова и степень покрытия местности в баллах.